Home   Weather   Leutkirch im Allgäu   Past weeks

Flag for Germany Past Weather in Leutkirch im Allgäu, Baden-Württemberg, Germany — Yesterday and Last 2 Weeks

Now
79 °F

Passing clouds.


Feels Like: 79 °F
Forecast: 53 / 82 °F
Wind: 5 mph from Southwest

Location: Friedrichshafen Airport

Current Time: May 28, 2017 at 12:42:15 pm

Latest Report: May 28, 2017 at 12:20 pm


Visibility: N/A

Pressure: 30.12 "Hg (27.95 "Hg at 656m altitude)

Humidity: 42%

Dew Point: 54 °F

Location of Leutkirch im AllgäuLocation

Past Weather in Leutkirch im Allgäu — Graph

°F

Leutkirch im Allgäu Temperature Yesterday

Maximum temperature yesterday: 82 °F (at 4:20 pm)
Minimum temperature yesterday: 52 °F (at 4:20 am)
Average temperature yesterday: 68 °F

High & Low Weather Summary for the Past Weeks

 TemperatureHumidityPressure
High82 °F (May 27, 4:20 pm)100% (May 14, 2:20 am)30.42 "Hg (May 14, 2:20 am)
Low36 °F (May 20, 4:20 am)21% (May 17, 5:20 pm)29.80 "Hg (May 19, 12:44 am)
Average62 °F65%30.14 "Hg
* Reported May 13 11:20 am — May 28 11:20 am, Leutkirch im Allgäu. Weather by CustomWeather, © 2017

Note: Actual official high and low records may vary slightly from our data, if they occured in-between our weather recording intervals... More about our weather records

Advertising

Leutkirch im Allgäu Weather History for the Previous 24 Hours

Scroll right to see more
 ConditionsComfort  
Time TempWeatherWind HumidityBarometerVisibility
11:20 am
Sun, May 28
75 °FPassing clouds.6 mph50%30.12 "HgN/A
10:50 am73 °FSunny.3 mph57%30.12 "Hg10 mi
10:20 am72 °FSunny.3 mph61%30.15 "Hg10 mi
9:50 am72 °FSunny.1 mph57%30.15 "Hg10 mi
9:20 am70 °FSunny.2 mph60%30.15 "Hg10 mi
8:50 am68 °FSunny.1 mph60%30.15 "Hg10 mi
8:20 am66 °FMild.2 mph60%30.15 "HgN/A
7:50 am63 °FMild.2 mph73%30.15 "HgN/A
7:20 am61 °FCool.1 mph77%30.15 "HgN/A
6:50 am57 °FCool.No wind82%30.15 "HgN/A
6:20 am55 °FCool.3 mph82%30.12 "HgN/A
5:50 am55 °FCool.5 mph82%30.12 "HgN/A
5:20 am55 °FCool.3 mph82%30.12 "HgN/A
4:50 am55 °FCool.3 mph82%30.12 "HgN/A
4:20 am55 °FCool.3 mph82%30.12 "HgN/A
3:50 am55 °FCool.5 mph82%30.12 "HgN/A
3:20 am57 °FCool.5 mph77%30.12 "HgN/A
2:20 am57 °FCool.5 mph77%30.12 "HgN/A
1:50 am59 °FCool.2 mph77%30.12 "HgN/A
1:20 am59 °FCool.5 mph77%30.12 "HgN/A
12:50 am63 °FMild.1 mph68%30.12 "HgN/A
12:20 am63 °FMild.1 mph68%30.12 "HgN/A
11:50 pm
Sat, May 27
64 °FMild.3 mph60%30.12 "HgN/A
11:20 pm68 °FMild.5 mph53%30.12 "HgN/A
10:50 pm66 °FMild.5 mph56%30.12 "HgN/A
10:20 pm64 °FMild.2 mph64%30.12 "HgN/A
9:20 pm68 °FMild.2 mph53%30.09 "HgN/A
8:50 pm72 °FMild.3 mph47%30.09 "HgN/A
7:50 pm77 °FSunny.3 mph42%30.07 "Hg10 mi
6:50 pm81 °FSunny.7 mph34%30.07 "Hg10 mi
6:20 pm81 °FSunny.8 mph32%30.07 "Hg10 mi
5:50 pm82 °FSunny.7 mph35%30.07 "Hg10 mi
5:20 pm82 °FSunny.5 mph37%30.07 "Hg10 mi
4:50 pm81 °FSunny.8 mph39%30.07 "Hg10 mi
4:20 pm82 °FPassing clouds.7 mph37%30.09 "HgN/A
3:50 pm81 °FPassing clouds.6 mph42%30.09 "HgN/A
3:20 pm79 °FPassing clouds.7 mph45%30.09 "HgN/A
2:20 pm77 °FSunny.8 mph47%30.09 "Hg10 mi
1:50 pm75 °FSunny.9 mph50%30.12 "Hg10 mi
1:20 pm75 °FSunny.9 mph50%30.12 "Hg10 mi
12:50 pm77 °FSunny.2 mph47%30.12 "Hg10 mi
12:20 pm75 °FSunny.3 mph47%30.12 "Hg10 mi
Weather by CustomWeather, © 2017

See weather overviewHow to use our weather pages